星链-32195 (STARLINK-32195)

导读

STARLINK-32195是美国SpaceX公司星链星座的一员,于2024年8月12日发射入轨,运行在近地轨道。作为低轨互联网卫星,它采用Ku/Ka频段通信,部分卫星支持激光星间链路,可为全球提供高速卫星互联网接入服务。它补充了星链星座的组网规模,助力星链实现全球覆盖,满足偏远地区、移动场景等宽带通信需求,也进一步巩固了美国在低轨卫星互联网领域的先发优势。

Basic Information
目录编号:
60440
目录名称:
STARLINK-32195
国际标识:
2024-144R
轨道中心:
EARTH
卫星名称:
星链-32195 (STARLINK-32195)
卫星全名:
星链-32195 (STARLINK-32195)
卫星状态:
在轨 (已飞行675 天)
发射日期:
2024-08-12 UTC
国别 :
美国 (US)
星等 :
--
Orbit Information
数据来源 国际轨道数据 AOE轨道数据
星历时间 2026-06-17T10:23:55+0800
22小时前
查看轨道信息
2026-06-14T03:00:00+0800
4天前
查看轨道信息
半长轴 6840.878km 6840.824km
偏心率 0.0001353 0.0001215
轨道倾角 53.160° 53.157°
近地点辐角 90.645° 93.581°
升交点赤经 113.659° 129.123°
平近点角 269.470° 342.144°
近地点 461.815km 461.855km
远地点 463.667km 463.519km
周期 93.849分钟 93.847分钟
每日圈数 15.343875 15.344056
Detailed Information
卫星平台:
Starlink v2.0 mini
运营商:
太空探索技术公司
运营商所在国:
美国
制造商(研发单位):
太空探索技术公司
制造商所在国:
美国
使用方式:
暂无
Satellite Introduction
星链(Starlink)计划是由太空探索技术公司(SpaceX)提出的一个巨型低轨卫星互联网星座项目,计划在2019年至2024年间在太空搭建由约1.2万颗卫星组成的“星链”网络,其中1584颗将部署在地球上空550千米处的近地轨道,并从2020年开始工作。该卫星仍在工作。
2D Orbit Map
3D Orbit Map
Orbit Altitude Analysis Chart
Orbit Inclination Analysis Chart
Orbit Comprehensive Analysis Chart
View Comprehensive Chart